Temp
5 5 5 5 5 5 5 5 5 5 5 6 6 5 5 6 6 6 6 7 7 7 7 8 8 8 8 8 8 8 8 8 8 8 8 8 8 8 8 8 8 9 8 8 7 7 8 8 8 8 8 8
4 4 4 4 5 5 4 4 4 4 5 5 5 5 5 5 5 5 5 6 6 6 7 7 7 7 8 8 8 8 8 8 8 8 8 8 8 8 8 8 8 8 8 8 7 7 8 8 8 7 7 8
4 4 4 4 4 4 4 4 4 4 4 4 4 4 4 4 4 4 5 5 5 6 6 6 7 7 7 7 7 7 7 7 7 7 8 7 7 8 8 8 8 8 8 8 8 7 7 7 7 7 7 8
3 3 3 3 3 4 4 4 3 3 3 4 4 3 3 4 4 4 4 4 5 5 5 6 6 6 6 7 7 7 7 7 7 7 7 7 7 8 8 8 8 8 8 8 8 7 7 7 7 7 7 7
3 3 3 3 3 3 3 3 3 3 3 3 3 3 3 3 3 3 3 4 4 4 5 5 5 5 5 6 6 6 7 7 7 7 7 7 7 7 7 7 7 7 7 8 8 8 7 7 7 7 7 7
2 2 3 3 3 3 3 3 3 3 3 3 3 3 3 3 3 3 3 3 3 4 4 5 5 5 5 5 6 6 6 6 6 6 7 7 7 7 7 7 7 7 7 7 7 7 7 7 7 7 7 7
2 2 2 3 3 3 3 3 3 3 3 3 3 3 3 3 3 3 3 3 3 3 4 4 5 5 5 5 5 5 5 6 6 6 6 6 6 6 6 7 7 7 7 7 7 7 7 7 7 7 7 7
1 2 2 2 2 3 3 3 3 3 3 3 3 3 3 3 2 2 3 3 3 3 4 4 4 4 5 5 5 5 5 5 5 5 6 6 6 6 6 6 6 7 7 7 7 7 7 7 7 7 7 7
1 1 1 1 2 2 2 3 3 3 3 3 3 3 3 3 3 3 3 3 3 4 4 4 4 4 4 5 5 5 5 5 5 5 5 6 6 6 6 6 6 6 6 7 7 7 7 6 6 7 7 7
-0 0 0 1 1 1 2 2 2 3 3 3 3 3 3 3 4 4 4 4 4 4 4 4 4 4 4 4 4 5 5 5 5 5 5 6 6 6 6 6 6 6 6 6 7 6 6 6 6 6 6 7
-1 -1 -1 -1 -0 0 1 1 1 2 2 2 2 2 3 3 3 3 4 4 4 4 4 4 4 4 4 4 4 4 5 5 5 5 5 6 6 6 6 6 6 6 6 6 6 6 6 6 6 6 6 6
-2 -2 -1 -1 -1 -1 -1 -0 -0 0 0 1 1 2 2 2 2 2 2 3 3 4 4 4 4 4 4 4 4 3 4 4 5 5 5 5 5 6 6 6 6 6 6 6 6 6 6 6 5 5 6 6
-2 -2 -2 -2 -2 -2 -2 -2 -2 -1 -1 -1 -0 0 1 1 1 1 1 1 2 2 3 3 4 4 4 4 4 4 4 4 4 5 5 5 5 5 6 6 6 6 6 6 5 6 5 6 6 5 5 5
-3 -3 -2 -2 -2 -2 -2 -2 -3 -3 -3 -3 -2 -1 -0 -0 0 0 0 0 0 0 1 2 2 3 3 4 4 4 4 4 4 4 4 5 5 5 6 6 6 6 6 6 6 6 5 5 6 5 5 5
-3 -3 -3 -3 -3 -3 -3 -3 -3 -3 -4 -4 -4 -3 -2 -2 -1 -1 -1 -1 -1 -1 -1 -0 0 1 1 2 2 3 3 3 4 4 4 4 4 5 5 6 6 6 6 6 6 6 6 5 5 5 5 6
-4 -4 -4 -4 -3 -3 -3 -3 -3 -4 -4 -5 -5 -5 -4 -3 -3 -3 -3 -2 -2 -2 -2 -2 -1 -1 -1 -0 0 1 1 2 2 3 3 2 3 4 4 5 5 6 6 6 6 6 6 5 5 5 5 5
-5 -5 -5 -5 -4 -4 -4 -4 -4 -4 -5 -5 -5 -5 -5 -4 -4 -4 -4 -3 -3 -2 -2 -2 -2 -2 -1 -1 -1 -1 -0 0 1 1 2 2 2 2 3 4 4 5 5 5 5 5 6 6 6 5 5 5
-6 -6 -6 -6 -5 -5 -5 -5 -5 -5 -5 -6 -6 -5 -5 -5 -5 -5 -5 -4 -4 -3 -3 -3 -3 -2 -2 -2 -2 -1 -1 -1 -1 -0 0 1 1 2 2 3 3 4 4 5 5 5 5 5 6 5 5 5
-7 -7 -7 -6 -6 -6 -6 -6 -6 -6 -6 -6 -6 -6 -6 -6 -6 -6 -6 -6 -5 -5 -4 -4 -4 -3 -3 -3 -2 -2 -2 -2 -2 -2 -1 -1 -0 1 1 2 2 3 3 4 4 4 4 5 5 5 5 5
-8 -8 -8 -7 -7 -7 -7 -7 -7 -7 -7 -7 -7 -7 -7 -7 -7 -7 -7 -7 -6 -6 -6 -5 -5 -4 -4 -3 -3 -3 -2 -2 -3 -3 -3 -3 -2 -1 -0 1 1 1 2 3 3 4 4 4 4 5 5 5
-8 -8 -8 -8 -8 -8 -8 -7 -7 -7 -7 -7 -7 -7 -7 -7 -7 -7 -7 -7 -7 -7 -7 -6 -6 -5 -5 -4 -4 -3 -3 -3 -3 -3 -3 -3 -3 -3 -2 -1 -0 0 1 1 2 2 3 3 4 4 4 5
-9 -9 -9 -9 -9 -9 -8 -8 -8 -8 -8 -8 -8 -8 -8 -8 -7 -8 -8 -8 -8 -8 -7 -7 -7 -6 -6 -5 -4 -4 -4 -4 -4 -4 -4 -4 -4 -4 -4 -3 -2 -1 -0 0 1 1 2 2 3 3 3 4
-9 -9 -9 -9 -9 -9 -9 -9 -9 -9 -9 -9 -9 -9 -9 -9 -8 -8 -8 -8 -8 -8 -8 -8 -7 -7 -6 -6 -5 -5 -5 -5 -5 -5 -4 -4 -4 -4 -4 -4 -4 -3 -2 -1 -0 0 1 1 2 2 3 3
-10 -10 -9 -9 -9 -9 -9 -9 -9 -9 -9 -9 -9 -9 -9 -9 -9 -9 -9 -9 -9 -8 -9 -8 -8 -7 -7 -7 -6 -6 -6 -5 -5 -5 -5 -5 -5 -5 -5 -4 -4 -4 -4 -3 -2 -1 -0 1 1 1 2 2
-10 -10 -10 -10 -10 -10 -10 -10 -10 -10 -10 -9 -9 -9 -9 -9 -9 -9 -9 -9 -9 -9 -9 -9 -8 -8 -8 -7 -7 -6 -6 -6 -6 -6 -6 -5 -5 -5 -5 -5 -4 -4 -4 -4 -3 -2 -2 -1 0 0 1 1
-10 -10 -10 -10 -10 -10 -10 -10 -10 -10 -10 -10 -10 -9 -9 -9 -9 -10 -10 -10 -10 -10 -10 -9 -9 -8 -8 -8 -8 -7 -7 -7 -6 -6 -6 -6 -6 -5 -5 -5 -5 -4 -4 -4 -4 -3 -3 -2 -1 -0 0 1
-10 -10 -10 -10 -11 -11 -10 -11 -11 -11 -11 -11 -11 -10 -10 -10 -10 -10 -10 -10 -10 -10 -11 -10 -9 -9 -8 -8 -8 -8 -8 -7 -7 -7 -7 -6 -6 -6 -5 -5 -5 -5 -5 -4 -4 -3 -3 -2 -2 -1 -0 0
-10 -11 -11 -11 -11 -11 -11 -11 -11 -11 -11 -12 -12 -12 -12 -11 -11 -11 -11 -11 -11 -11 -11 -10 -10 -9 -9 -9 -8 -8 -8 -8 -8 -7 -7 -7 -7 -6 -6 -5 -5 -5 -5 -5 -4 -4 -3 -2 -2 -1 -0 0
-11 -11 -11 -11 -11 -12 -12 -12 -12 -12 -12 -12 -12 -12 -12 -12 -12 -12 -12 -12 -11 -11 -11 -11 -10 -9 -9 -9 -9 -8 -8 -8 -8 -8 -8 -7 -7 -7 -6 -6 -6 -5 -5 -5 -5 -4 -3 -3 -2 -1 -1 -1
-11 -11 -11 -12 -12 -12 -12 -12 -12 -12 -12 -12 -12 -13 -13 -13 -13 -13 -12 -12 -12 -12 -12 -12 -11 -10 -10 -9 -9 -9 -8 -8 -8 -8 -8 -8 -8 -7 -7 -7 -6 -6 -6 -6 -5 -5 -5 -4 -3 -2 -3 -3
-11 -12 -12 -12 -13 -13 -13 -13 -13 -13 -13 -13 -13 -13 -13 -13 -13 -13 -13 -13 -13 -13 -12 -12 -12 -11 -10 -10 -10 -9 -9 -9 -8 -8 -9 -8 -8 -8 -8 -7 -7 -7 -7 -6 -6 -5 -5 -5 -5 -4 -4 -4
Height
1531 1530 1530 1530 1530 1529 1529 1528 1527 1526 1526 1525 1525 1524 1524 1524 1524 1524 1523 1523 1523 1523 1524 1524 1525 1525 1526 1527 1528 1528 1529 1529 1529 1529 1530 1530 1530 1531 1532 1532 1532 1533 1533 1533 1533 1534 1536 1537 1537 1537 1537 1537
1531 1531 1530 1530 1530 1529 1529 1528 1527 1526 1525 1525 1524 1523 1523 1523 1523 1523 1522 1522 1521 1522 1522 1522 1523 1523 1524 1525 1525 1526 1527 1527 1528 1528 1528 1528 1528 1529 1530 1530 1531 1531 1531 1531 1532 1533 1535 1536 1536 1537 1537 1537
1532 1531 1531 1530 1529 1529 1529 1528 1528 1527 1526 1525 1524 1523 1523 1523 1522 1522 1521 1520 1520 1520 1520 1521 1521 1521 1522 1523 1523 1524 1525 1525 1526 1526 1527 1527 1527 1527 1528 1529 1529 1530 1530 1530 1531 1532 1533 1535 1536 1536 1537 1537
1533 1532 1531 1531 1530 1529 1529 1528 1528 1527 1527 1526 1525 1523 1523 1522 1522 1521 1520 1520 1519 1519 1519 1520 1520 1520 1520 1521 1522 1522 1523 1523 1524 1524 1525 1525 1526 1526 1527 1527 1528 1528 1529 1529 1530 1531 1532 1534 1535 1536 1536 1536
1533 1533 1532 1531 1530 1530 1529 1528 1528 1528 1528 1527 1525 1524 1524 1523 1522 1521 1520 1520 1519 1518 1518 1518 1519 1519 1520 1520 1521 1521 1521 1522 1522 1523 1523 1524 1525 1525 1526 1526 1527 1527 1528 1528 1528 1529 1531 1532 1533 1534 1535 1535
1533 1533 1532 1532 1531 1530 1529 1529 1528 1528 1527 1527 1526 1525 1524 1523 1523 1522 1521 1520 1518 1517 1517 1517 1517 1518 1519 1519 1520 1520 1520 1520 1520 1521 1522 1522 1523 1524 1524 1525 1526 1526 1526 1527 1527 1528 1530 1531 1532 1533 1534 1535
1533 1532 1532 1531 1530 1530 1529 1529 1528 1527 1527 1526 1525 1525 1524 1523 1523 1523 1522 1520 1518 1516 1516 1516 1516 1516 1517 1518 1518 1519 1520 1519 1519 1520 1520 1521 1522 1522 1523 1524 1525 1525 1525 1526 1527 1527 1528 1530 1531 1532 1533 1534
1533 1532 1531 1530 1529 1529 1528 1527 1527 1526 1526 1525 1525 1524 1524 1524 1523 1523 1522 1521 1518 1516 1515 1515 1515 1515 1515 1516 1517 1518 1518 1519 1519 1520 1520 1520 1520 1521 1522 1523 1524 1524 1524 1525 1525 1526 1527 1528 1530 1531 1532 1532
1532 1532 1531 1530 1529 1528 1527 1526 1526 1525 1525 1524 1524 1523 1523 1523 1523 1523 1522 1521 1518 1516 1515 1514 1514 1513 1513 1515 1515 1516 1517 1517 1518 1519 1519 1519 1519 1519 1520 1521 1522 1523 1524 1524 1524 1525 1526 1527 1528 1529 1531 1531
1532 1531 1530 1529 1528 1527 1526 1525 1524 1524 1523 1522 1522 1521 1521 1521 1521 1521 1520 1519 1518 1516 1515 1514 1514 1513 1513 1514 1514 1515 1516 1516 1516 1517 1518 1518 1518 1518 1519 1519 1520 1521 1522 1523 1523 1523 1525 1526 1527 1528 1529 1530
1532 1531 1529 1528 1527 1526 1525 1524 1523 1522 1521 1521 1520 1519 1518 1518 1517 1517 1517 1516 1515 1514 1514 1514 1514 1514 1513 1513 1513 1514 1514 1514 1515 1515 1516 1516 1517 1517 1517 1518 1518 1519 1520 1521 1522 1522 1523 1524 1525 1526 1528 1529
1532 1530 1529 1528 1526 1525 1524 1523 1522 1521 1520 1519 1518 1517 1516 1515 1514 1513 1512 1512 1511 1511 1511 1511 1511 1512 1512 1513 1513 1513 1512 1512 1513 1514 1514 1515 1515 1515 1516 1516 1516 1517 1518 1519 1520 1520 1521 1523 1524 1525 1526 1527
1531 1530 1528 1527 1526 1524 1523 1522 1521 1519 1518 1517 1516 1515 1514 1513 1512 1511 1510 1508 1508 1507 1507 1508 1508 1509 1510 1511 1511 1512 1511 1510 1510 1511 1512 1513 1513 1513 1514 1514 1514 1515 1516 1517 1518 1518 1519 1521 1522 1523 1524 1525
1530 1528 1527 1526 1524 1523 1522 1521 1519 1518 1517 1516 1515 1513 1512 1511 1510 1509 1508 1507 1506 1506 1505 1505 1505 1505 1506 1507 1508 1509 1509 1509 1509 1509 1510 1511 1511 1511 1511 1512 1512 1513 1513 1514 1516 1516 1517 1519 1520 1521 1522 1523
1529 1527 1526 1524 1523 1522 1520 1519 1518 1517 1516 1515 1514 1512 1510 1509 1508 1507 1506 1505 1505 1504 1504 1503 1503 1503 1503 1503 1504 1505 1505 1506 1507 1507 1507 1508 1508 1508 1508 1509 1509 1510 1511 1512 1513 1514 1515 1516 1518 1519 1520 1521
1527 1525 1524 1522 1521 1520 1519 1517 1516 1515 1514 1513 1512 1510 1509 1508 1507 1506 1505 1503 1503 1502 1502 1502 1501 1501 1501 1501 1501 1501 1501 1502 1503 1504 1505 1505 1505 1504 1505 1505 1506 1507 1508 1509 1510 1511 1512 1513 1515 1516 1517 1518
1525 1524 1522 1521 1520 1518 1517 1516 1514 1513 1512 1512 1510 1509 1507 1506 1505 1504 1503 1502 1501 1500 1500 1499 1499 1499 1499 1499 1498 1498 1498 1498 1499 1500 1501 1501 1501 1501 1501 1502 1502 1503 1504 1505 1506 1507 1508 1510 1511 1513 1514 1515
1524 1522 1521 1519 1518 1516 1515 1514 1512 1511 1510 1509 1508 1507 1505 1504 1503 1502 1501 1500 1498 1498 1497 1497 1496 1496 1496 1496 1496 1495 1495 1495 1496 1496 1496 1497 1497 1497 1498 1498 1499 1499 1500 1501 1502 1504 1505 1506 1507 1509 1511 1512
1523 1521 1519 1518 1516 1515 1513 1512 1510 1509 1508 1507 1505 1504 1503 1502 1501 1500 1499 1497 1496 1495 1494 1494 1493 1493 1493 1493 1493 1492 1492 1492 1492 1493 1493 1493 1493 1493 1494 1495 1495 1496 1497 1498 1499 1500 1501 1502 1503 1504 1506 1508
1521 1519 1517 1516 1514 1512 1511 1509 1508 1507 1505 1504 1503 1502 1501 1500 1498 1497 1496 1495 1494 1493 1492 1491 1490 1490 1490 1490 1489 1489 1489 1489 1489 1490 1490 1490 1489 1489 1490 1491 1492 1493 1493 1494 1495 1496 1497 1498 1499 1500 1501 1503
1519 1517 1515 1513 1511 1509 1508 1506 1505 1504 1503 1502 1501 1499 1498 1497 1496 1494 1493 1492 1491 1490 1490 1489 1488 1487 1486 1486 1486 1486 1486 1486 1486 1486 1486 1487 1487 1486 1487 1487 1488 1490 1490 1491 1491 1492 1493 1494 1495 1496 1497 1498
1516 1514 1512 1510 1508 1506 1505 1503 1502 1501 1500 1499 1498 1496 1495 1494 1493 1491 1491 1490 1489 1488 1487 1486 1485 1484 1483 1483 1483 1482 1482 1483 1483 1483 1483 1483 1484 1484 1484 1485 1485 1486 1487 1487 1487 1487 1488 1490 1491 1492 1493 1494
1514 1511 1509 1507 1505 1503 1502 1500 1499 1498 1497 1497 1495 1494 1492 1491 1489 1489 1488 1487 1487 1486 1485 1484 1483 1482 1481 1480 1480 1479 1479 1479 1480 1480 1480 1480 1481 1482 1482 1482 1483 1483 1483 1484 1484 1483 1484 1485 1486 1487 1488 1490
1511 1508 1506 1504 1503 1501 1499 1497 1496 1495 1495 1494 1493 1491 1489 1488 1486 1485 1484 1484 1484 1483 1482 1481 1480 1479 1478 1477 1477 1476 1476 1476 1477 1477 1477 1478 1478 1479 1479 1480 1480 1481 1480 1480 1480 1480 1480 1481 1482 1483 1484 1485
1509 1506 1503 1501 1500 1499 1497 1495 1493 1492 1492 1492 1490 1489 1487 1485 1483 1482 1481 1481 1481 1481 1479 1479 1478 1477 1476 1475 1474 1473 1473 1473 1473 1473 1474 1475 1475 1476 1477 1477 1478 1479 1478 1478 1478 1478 1478 1478 1478 1478 1479 1480
1506 1503 1501 1500 1498 1497 1495 1493 1491 1490 1489 1488 1487 1485 1483 1482 1480 1479 1478 1478 1478 1477 1476 1475 1475 1474 1474 1473 1472 1470 1469 1469 1469 1470 1471 1471 1472 1473 1474 1474 1475 1477 1477 1476 1475 1476 1476 1475 1475 1474 1475 1475
1503 1501 1500 1498 1496 1494 1492 1491 1490 1488 1486 1485 1483 1482 1480 1479 1477 1476 1475 1474 1474 1473 1472 1471 1471 1471 1471 1470 1469 1468 1467 1467 1466 1467 1468 1468 1469 1470 1471 1471 1472 1473 1474 1473 1474 1474 1473 1473 1473 1472 1471 1471
1501 1499 1497 1496 1494 1492 1489 1488 1487 1485 1484 1482 1481 1479 1477 1475 1474 1473 1472 1471 1470 1469 1468 1467 1467 1467 1467 1466 1466 1465 1464 1464 1464 1464 1464 1465 1466 1467 1468 1468 1469 1470 1470 1471 1471 1472 1471 1471 1472 1470 1469 1469
1499 1497 1495 1494 1492 1489 1487 1486 1485 1483 1482 1480 1478 1476 1474 1472 1471 1469 1468 1467 1466 1465 1463 1463 1463 1463 1463 1463 1462 1462 1461 1461 1461 1460 1461 1462 1463 1464 1465 1465 1466 1467 1467 1467 1468 1469 1469 1470 1469 1468 1468 1468
1498 1495 1493 1491 1490 1487 1485 1484 1482 1481 1479 1476 1474 1472 1470 1468 1467 1465 1464 1462 1461 1460 1459 1458 1458 1459 1459 1459 1458 1458 1458 1458 1457 1457 1457 1458 1459 1460 1461 1462 1462 1463 1463 1464 1465 1465 1466 1466 1466 1466 1466 1466
1495 1492 1490 1488 1487 1485 1483 1481 1478 1477 1475 1472 1469 1467 1465 1463 1462 1461 1459 1457 1456 1455 1455 1454 1454 1454 1454 1454 1454 1455 1454 1454 1454 1454 1454 1454 1455 1457 1458 1459 1459 1459 1460 1461 1461 1462 1463 1463 1463 1464 1464 1464
Wind_Speed
4 2 0 3 5 5 4 4 2 2 3 5 4 5 6 7 8 9 10 9 9 9 9 10 10 11 15 14 15 15 12 11 12 12 13 12 13 13 15 14 13 12 14 18 15 13 13 13 9 7 6 5
7 6 5 3 1 2 3 3 3 2 1 3 3 3 4 4 5 7 8 7 8 9 8 9 10 10 12 13 17 19 15 13 13 12 13 14 13 13 13 14 12 11 13 16 16 15 13 13 10 8 6 6
8 7 7 7 7 4 3 3 3 4 3 1 0 1 1 3 3 4 6 7 6 7 8 7 8 9 9 9 13 18 19 17 15 13 14 14 14 12 11 13 12 11 13 15 16 16 14 12 11 9 6 7
9 8 8 9 8 8 7 5 4 3 4 3 3 3 3 4 4 5 6 6 6 5 5 5 5 7 7 7 9 12 17 19 18 16 15 14 15 14 12 12 12 12 13 13 16 16 14 12 11 10 7 6
11 10 9 9 9 9 9 8 6 4 3 3 4 4 4 5 6 7 7 8 7 6 5 4 3 3 4 5 7 8 11 15 17 18 19 16 14 15 14 12 10 12 12 13 15 15 15 14 12 11 8 6
13 12 11 10 10 10 10 10 9 7 6 5 4 4 4 5 7 7 7 7 8 8 6 4 3 2 1 3 4 6 9 10 10 14 19 19 16 15 15 14 11 11 11 12 14 14 15 15 13 12 9 7
15 14 13 13 12 12 12 12 11 10 10 8 7 7 6 5 6 8 8 6 5 6 7 5 3 2 1 2 3 4 6 9 9 9 13 16 15 15 15 15 13 12 12 13 14 13 14 14 13 14 11 8
17 17 17 16 15 15 14 14 14 14 14 13 12 11 9 8 7 8 9 10 7 3 2 3 3 3 2 1 3 5 5 6 8 8 9 11 12 13 14 16 16 13 12 14 14 13 13 14 13 14 13 10
20 20 20 19 19 18 17 17 17 16 17 16 16 16 14 13 10 10 10 10 10 8 7 6 6 4 4 5 4 5 7 7 8 8 9 9 10 11 12 14 16 15 13 13 14 13 13 13 14 14 15 13
23 23 22 22 22 21 21 20 19 19 19 19 20 20 19 19 17 16 14 13 13 12 11 10 11 11 11 10 9 8 7 8 10 10 10 10 10 10 11 12 14 16 15 14 14 14 13 13 14 15 16 16
26 26 25 25 24 24 24 23 23 22 22 22 22 22 22 22 23 22 21 20 19 18 16 13 13 14 15 16 17 17 13 9 10 12 12 12 11 11 11 11 12 14 16 17 17 17 15 14 15 15 16 18
30 30 29 27 27 26 25 25 25 25 25 25 24 24 23 23 25 25 26 26 26 25 23 21 18 16 16 17 19 22 21 17 14 13 13 14 13 14 13 12 12 13 15 16 19 20 18 16 16 16 15 17
33 33 32 30 29 27 26 25 25 26 26 26 26 26 25 25 25 26 28 29 30 30 30 29 27 25 22 21 20 21 23 23 22 19 17 16 15 15 16 15 14 14 15 15 17 20 21 19 18 17 16 17
36 35 34 33 31 29 27 25 24 24 24 25 26 27 27 26 26 27 28 29 29 30 31 32 32 32 31 29 28 26 24 24 25 25 23 20 18 17 18 18 17 16 16 16 17 19 21 21 20 20 19 18
38 37 36 34 33 30 28 26 24 23 22 23 24 26 28 27 27 27 28 28 28 28 28 30 32 33 34 35 34 34 32 28 27 28 28 25 22 20 19 20 20 19 18 17 18 19 21 22 22 23 23 22
39 38 37 35 34 32 29 27 25 23 21 22 22 24 27 28 27 27 27 28 29 28 28 29 30 31 32 32 32 33 34 33 31 30 30 27 25 23 22 21 21 22 20 19 19 19 21 22 23 24 25 25
39 38 36 35 33 31 30 28 25 23 21 21 21 23 27 28 28 28 27 28 29 29 28 29 30 30 30 28 28 28 29 31 32 31 31 29 27 25 24 23 23 23 23 21 20 21 21 22 24 24 24 26
37 35 34 32 31 30 28 27 24 22 21 21 24 26 28 29 29 28 27 28 29 29 28 28 29 29 28 27 27 27 26 27 28 29 30 30 28 26 24 24 24 24 24 23 23 23 23 24 25 25 25 26
34 32 30 29 28 27 27 25 23 22 21 23 26 28 28 28 29 28 28 28 28 28 28 27 27 27 26 26 26 26 25 25 25 26 27 28 29 27 25 24 24 24 25 25 25 25 26 27 27 27 27 28
31 29 29 27 26 26 26 25 24 22 22 23 26 27 28 28 29 29 28 27 27 27 26 25 25 25 26 26 25 25 25 25 24 24 24 25 26 27 27 25 24 24 25 27 27 27 28 29 30 29 29 30
29 28 28 27 27 27 26 26 25 25 24 24 25 26 28 28 30 29 27 25 26 26 25 24 24 24 25 25 24 25 24 24 23 22 23 23 22 23 26 26 25 24 25 27 28 29 30 31 32 32 31 32
28 28 27 27 28 28 28 28 27 28 28 27 27 27 27 28 29 28 25 23 21 22 24 24 24 24 24 24 24 24 24 24 23 23 24 23 21 20 22 23 24 25 25 26 28 30 31 31 32 34 34 34
28 27 27 27 28 29 30 31 31 31 31 30 29 29 29 29 28 27 25 22 19 19 22 23 24 23 23 24 23 24 24 23 22 22 23 24 24 22 21 21 21 23 25 25 27 30 31 32 32 34 35 36
26 26 27 27 26 27 28 32 36 36 35 33 33 31 30 30 29 28 25 23 21 19 20 22 23 23 23 24 23 23 24 22 20 20 22 23 24 23 22 21 19 20 22 25 26 29 31 33 33 34 35 37
25 25 25 26 26 27 28 33 37 38 39 37 36 33 31 30 29 28 26 24 21 19 19 20 22 24 24 23 23 23 23 23 23 22 23 23 23 24 23 20 17 16 18 20 22 24 27 30 32 34 35 36
26 23 22 24 26 27 28 31 33 36 39 39 39 37 33 30 28 27 26 24 21 20 20 21 23 24 24 22 21 21 23 24 25 24 23 23 23 22 22 21 19 17 16 15 15 16 18 21 25 30 35 38
24 22 24 26 27 29 31 33 33 34 34 33 34 34 34 33 31 29 28 27 25 24 25 25 26 25 24 23 20 19 21 22 22 21 20 20 21 20 19 20 19 18 18 16 13 12 15 15 15 20 27 34
20 21 24 26 26 29 32 31 29 28 26 24 24 26 30 33 32 29 31 34 34 31 30 30 29 28 25 24 22 18 18 18 18 18 17 17 18 19 19 19 18 18 18 18 16 13 13 12 12 15 17 20
20 22 23 23 23 23 24 24 22 22 22 20 21 23 26 28 30 33 37 39 40 37 33 32 32 31 28 26 23 20 18 18 16 16 17 17 17 18 18 19 19 18 18 18 18 17 15 11 11 14 12 10
23 23 22 21 20 21 21 22 22 23 23 23 23 25 26 28 33 40 44 40 37 35 32 31 31 32 31 27 24 21 18 17 16 15 16 16 16 17 17 17 18 18 18 18 18 19 20 17 15 13 11 10
24 23 21 19 19 20 21 22 23 23 25 26 27 29 32 35 37 40 39 33 30 30 28 28 29 32 32 30 27 21 18 18 17 15 16 18 19 18 17 17 18 17 17 18 19 19 21 21 21 20 17 14
Wind_Direction
88 85 202 258 272 286 301 311 307 271 255 242 221 206 199 183 183 192 196 198 197 202 202 198 207 219 223 228 225 220 220 215 213 210 208 220 231 241 247 245 247 250 255 260 244 220 240 264 282 300 323 333
89 85 85 84 55 328 329 352 3 10 311 249 230 218 207 182 175 179 183 189 192 202 207 202 203 210 217 222 224 222 223 220 215 219 215 212 224 236 243 245 247 250 259 265 245 223 233 250 270 291 312 326
85 83 81 77 75 66 37 26 18 31 43 37 194 170 164 153 154 158 164 170 178 195 207 207 205 207 211 218 221 219 222 225 222 222 217 215 225 230 234 242 248 249 254 264 256 239 228 232 260 281 295 314
77 76 74 68 65 65 61 53 36 39 49 52 65 75 79 101 107 102 121 139 150 164 188 197 201 208 213 224 229 224 223 225 225 224 220 219 226 232 234 236 240 243 247 257 262 255 235 226 246 265 275 295
57 56 56 54 52 51 52 55 54 55 50 52 55 58 62 68 72 74 80 89 108 124 140 149 159 190 205 227 243 248 240 231 226 227 225 223 228 235 237 237 238 237 242 248 255 260 242 225 232 244 253 267
34 34 34 33 33 32 31 34 37 40 37 37 33 26 27 31 35 38 51 64 78 86 94 110 122 144 170 214 241 267 271 262 242 232 228 228 233 235 235 237 241 238 239 244 250 256 241 230 232 231 230 237
18 16 15 14 13 12 11 11 12 13 14 13 14 13 5 358 1 4 7 12 41 69 71 83 98 100 67 225 237 265 282 286 276 255 241 238 240 237 237 237 239 245 243 242 250 253 244 244 242 229 217 218
10 8 5 3 1 359 357 357 357 356 356 356 357 360 359 353 344 343 346 349 342 330 17 58 64 66 46 334 268 267 275 290 286 279 269 258 254 247 244 242 239 244 239 239 253 257 251 249 242 231 222 214
7 5 2 359 356 353 350 348 347 346 344 344 346 347 348 347 341 334 331 338 339 324 309 304 320 346 356 352 338 301 279 282 287 285 283 274 271 263 254 250 244 245 239 235 251 257 258 252 237 236 233 220
6 4 1 357 354 351 348 345 342 340 339 339 340 341 341 340 338 335 330 328 334 336 328 311 304 308 314 320 328 332 309 291 294 290 287 279 279 281 271 262 251 249 244 236 243 248 259 262 246 239 234 227
4 2 360 357 354 352 348 345 343 339 338 337 336 337 337 338 337 335 333 330 330 331 333 327 316 308 305 305 307 314 317 312 305 299 295 285 278 284 284 276 263 255 249 242 243 246 251 258 256 243 233 235
1 359 357 356 354 353 349 346 345 341 339 338 335 334 333 336 337 337 336 333 331 329 328 327 324 317 307 303 300 301 306 309 311 306 299 291 281 280 285 284 276 268 260 250 245 247 248 249 254 246 239 243
358 356 355 354 353 351 349 347 344 342 340 337 334 332 331 332 334 336 336 335 334 331 329 327 325 322 315 308 304 300 299 299 303 307 303 295 285 279 281 283 281 276 271 264 252 247 249 248 249 244 241 243
355 354 353 352 351 349 347 345 342 341 337 334 332 329 328 330 331 333 333 332 333 332 330 329 327 325 322 317 312 308 303 294 292 299 303 299 290 282 278 278 279 278 274 270 263 254 252 249 247 245 242 242
352 351 350 349 348 347 344 342 340 338 332 329 327 324 323 326 328 329 329 327 328 328 328 328 326 325 323 321 317 314 311 304 296 296 301 300 295 288 280 276 274 275 274 268 264 260 258 255 251 248 245 243
349 348 347 346 345 343 341 339 337 333 328 323 321 319 319 321 323 324 323 322 321 322 323 322 322 321 320 318 316 313 311 309 305 300 300 299 297 293 287 281 274 271 271 268 262 257 257 259 258 255 249 243
347 346 345 343 341 339 338 336 334 330 323 316 313 313 313 316 318 318 317 316 315 317 317 318 317 316 315 312 310 308 307 306 304 302 299 297 296 294 291 286 280 274 270 267 262 254 249 251 257 259 258 249
345 344 342 340 338 335 334 333 330 325 316 307 303 304 307 311 312 312 313 311 312 313 313 314 314 312 311 307 304 302 301 299 299 298 297 296 294 291 289 287 282 276 269 266 262 256 248 243 246 251 258 257
341 340 340 337 334 332 330 330 328 323 312 302 299 299 302 305 307 308 309 309 309 310 310 310 310 309 306 302 300 297 294 292 292 292 293 293 292 290 287 283 280 275 269 263 259 256 251 243 240 240 247 254
337 337 336 334 331 329 328 330 329 325 314 303 298 297 299 300 301 303 305 306 305 305 306 306 305 304 301 298 295 291 288 286 285 286 286 287 290 289 286 281 276 271 267 262 256 252 250 247 241 237 238 243
332 332 332 331 330 330 330 332 333 329 322 313 304 298 297 296 296 298 301 302 302 301 300 300 300 298 296 294 290 286 282 279 277 277 278 281 283 286 286 283 277 270 263 260 257 252 248 246 244 239 235 236
326 327 328 328 328 329 331 333 335 333 329 325 318 310 304 298 296 296 297 299 301 300 297 295 295 293 292 291 286 282 279 274 271 270 271 273 274 277 281 283 281 275 266 260 257 255 250 246 244 241 237 234
322 324 325 326 326 327 328 330 332 332 330 327 323 317 311 307 302 297 295 294 295 297 296 293 291 289 288 286 283 279 275 271 269 268 267 269 270 272 273 275 277 278 274 266 259 256 253 249 245 242 240 236
318 320 322 323 323 323 324 323 326 328 326 323 322 318 312 308 305 300 295 291 290 290 292 291 288 286 284 282 279 276 273 268 264 262 263 264 266 267 268 270 272 274 275 273 268 262 258 254 249 245 242 239
314 317 319 319 319 319 319 318 321 323 322 319 319 318 312 306 305 302 296 291 289 286 287 287 285 284 282 279 275 272 269 264 258 255 257 259 261 263 263 264 264 265 271 274 274 272 268 262 256 251 246 242
310 312 313 313 313 314 315 315 316 317 316 315 316 318 316 310 306 304 299 292 286 284 283 281 280 281 279 275 271 269 267 264 259 255 255 257 258 260 260 259 257 256 259 265 271 275 275 272 266 260 253 247
304 306 307 307 308 309 311 311 311 311 311 312 314 316 315 313 309 306 303 297 289 283 279 275 273 275 275 271 268 268 268 265 262 258 255 256 256 256 256 256 255 251 250 255 263 268 267 269 271 267 261 255
299 302 305 305 303 306 309 308 307 307 305 304 306 307 309 312 311 307 304 301 296 288 279 272 267 266 268 267 264 265 267 264 261 258 254 253 253 253 253 253 253 250 249 250 250 254 258 260 260 258 260 263
301 302 303 302 297 299 302 302 300 299 297 295 297 300 303 306 305 304 304 301 297 290 283 274 266 261 262 263 261 260 262 260 257 254 250 249 250 251 251 250 251 250 247 245 242 244 248 251 252 250 254 266
306 304 303 300 295 296 297 296 296 296 296 296 296 296 297 298 299 302 304 299 290 286 282 277 268 261 258 259 259 256 256 254 252 250 247 247 248 249 249 249 250 247 244 245 243 242 243 245 250 255 262 269
311 309 306 302 297 298 298 297 297 296 297 297 298 297 297 298 299 301 300 290 280 279 278 275 271 264 259 257 255 251 248 248 248 246 246 248 249 249 247 246 248 246 243 246 245 244 244 245 249 253 257 262